Location: Arlington
(40.6323°N, 74.1651°W)
Time: 00:02:07
(UTC+00:00)

Cosmos 1464 Rocket - Pass Details

Date: 22 November 2019
Orbit: 951 x 1002 km, 82.9° (Epoch: 07 December)

Event Time Altitude Azimuth Distance (km) Brightness Sun altitude
Rises 22:26:07 0° 351° (N) 3,642 6.9 -10.0°
Reaches altitude 10° 22:28:37 10° 350° (N) 2,689 6.2 -10.4°
Maximum altitude 22:34:45 78° 265° (W) 976 4.1 -11.5°
Drops below altitude 10° 22:40:50 10° 180° (S) 2,671 6.5 -12.6°
Sets 22:43:19 0° 179° (S) 3,616 7.2 -13.1°
